Theta_e
282 282 282 282 283 283 283 283 284 284 285 285 286 287 287 287 287 286 286 286 285 285 285 284 285 285 285 285 286 287 286 285 282 283 285 285 284 284 285 287 286 286 286
282 282 282 282 282 281 281 282 283 283 284 284 285 285 286 286 287 285 286 286 285 285 285 284 284 286 284 285 285 286 286 285 283 280 282 283 282 283 285 284 284 285 285
281 281 280 280 280 280 281 282 283 283 283 283 283 283 284 284 285 286 286 286 285 285 285 284 284 283 283 284 284 285 285 284 283 281 280 282 282 283 283 283 283 283 284
279 279 279 279 280 280 280 281 282 282 281 281 281 282 282 283 284 285 285 285 285 285 285 285 284 283 283 283 283 285 283 283 282 280 280 280 280 282 283 281 281 282 282
276 275 276 278 279 279 279 280 281 281 281 281 281 281 281 282 283 283 284 284 284 284 284 285 285 284 285 285 283 282 281 282 280 279 279 279 279 280 280 281 279 280 280
271 273 274 275 276 276 278 279 279 280 280 280 280 280 280 281 284 286 286 284 284 283 283 283 283 282 283 287 287 287 286 282 280 279 279 278 278 280 281 280 279 278 277
271 273 273 273 273 275 275 277 277 278 279 279 279 279 278 279 283 285 286 284 284 283 283 282 280 282 279 281 284 286 285 286 285 282 279 279 279 281 281 279 280 279 278
270 271 272 272 272 274 274 275 275 276 276 277 278 278 278 279 283 284 285 284 283 285 284 282 281 279 279 278 277 278 280 281 281 281 280 279 281 283 282 282 280 276 276
270 272 272 272 272 273 274 274 275 273 275 276 277 277 277 277 282 283 283 283 284 284 284 283 280 278 281 284 280 279 279 278 281 284 285 285 286 285 284 281 274 274 271
275 274 273 273 272 272 274 274 274 273 276 277 277 277 276 277 281 282 282 282 283 283 285 284 282 281 282 284 281 279 277 276 274 276 279 281 281 278 281 278 278 274 272
279 276 275 275 275 275 274 272 273 273 274 274 275 275 275 276 280 282 283 283 283 283 283 282 282 283 284 285 285 278 277 274 280 280 278 278 276 270 270 270 276 275 270
278 277 277 277 278 278 275 275 273 273 273 273 273 274 275 277 281 282 284 285 285 283 282 281 281 283 284 285 284 284 284 283 277 276 276 275 271 267 268 268 272 271 272
274 275 275 276 277 277 275 275 274 274 273 273 273 273 273 277 280 282 283 284 285 283 284 283 283 283 284 284 284 283 280 277 274 273 275 270 274 271 267 267 269 270 271
272 274 274 274 275 274 274 275 274 273 272 273 272 272 273 276 279 280 281 282 282 283 284 284 283 283 282 278 272 276 275 271 270 274 276 272 271 265 265 265 269 265 264
273 274 274 275 276 277 275 275 274 274 274 272 272 273 272 273 278 281 281 280 280 282 282 279 279 275 274 268 267 267 268 268 271 275 276 271 269 267 267 265 265 261 262
273 274 274 275 277 276 274 273 277 277 277 278 278 277 277 279 280 282 283 284 285 284 281 277 277 277 275 269 269 269 266 268 274 276 276 271 267 266 265 264 263 260 260
272 273 273 275 275 273 272 271 269 271 275 275 276 276 277 279 280 284 284 285 285 285 281 277 277 276 274 269 269 267 266 269 273 275 276 272 266 264 264 263 262 261 261
271 272 272 273 273 271 271 270 269 267 266 267 271 273 276 280 283 284 284 285 282 283 281 278 274 274 268 269 267 266 264 272 273 275 275 267 262 263 261 260 260 259 258
271 272 273 271 270 270 269 268 267 266 265 265 266 270 273 279 282 284 284 282 280 281 277 273 273 268 266 267 266 265 265 273 275 275 274 271 260 261 258 258 259 259 258
271 270 268 268 268 268 267 266 265 264 264 264 265 266 269 275 276 276 279 282 281 280 278 275 269 265 265 267 264 264 264 269 272 272 270 266 258 262 261 258 257 258 256
269 268 268 268 268 266 266 264 264 263 263 265 266 269 274 275 276 276 278 280 280 281 272 272 266 264 264 264 264 265 265 265 264 265 262 261 261 260 257 258 258 255 256
268 268 268 267 266 265 264 264 263 263 263 264 265 269 274 277 279 277 279 280 279 278 272 270 266 266 267 267 267 266 266 264 262 262 262 261 262 261 258 258 257 255 256
268 267 266 265 265 264 263 263 262 263 263 264 265 268 271 277 278 279 279 281 277 272 269 269 266 263 262 265 268 269 267 266 266 265 264 263 262 262 262 261 260 256 255
265 264 264 264 264 263 262 262 262 263 263 264 265 268 271 278 279 279 280 280 274 270 268 267 268 266 264 264 263 262 261 263 266 266 266 264 262 260 260 259 257 255 256
264 263 263 263 262 261 261 261 261 262 263 264 266 269 274 278 279 280 280 277 274 271 268 265 266 265 265 264 263 261 262 266 265 264 264 263 262 261 261 260 257 254 253
263 263 263 263 262 261 261 261 261 262 262 264 267 271 276 278 279 280 279 275 274 272 269 265 265 265 264 264 264 263 265 266 264 263 264 264 263 260 260 258 256 258 253
Wind_Speed
5 5 6 5 6 6 5 6 6 6 6 7 7 7 8 8 7 7 9 8 8 9 7 8 10 7 7 6 6 7 7 7 11 13 10 11 12 11 12 12 12 12 11
5 5 6 6 6 6 6 6 6 6 6 6 7 8 8 8 8 8 10 10 10 10 10 8 11 7 9 8 7 9 8 9 9 18 14 11 12 11 14 14 11 10 12
5 5 5 6 6 6 6 7 7 6 7 7 7 8 9 9 9 10 11 12 11 11 11 10 11 8 9 7 7 8 7 9 10 11 14 11 12 9 12 11 12 9 8
5 5 6 6 6 6 6 7 7 6 7 7 7 8 8 10 10 11 11 11 12 11 11 11 11 10 11 9 9 10 8 7 9 11 12 12 9 10 9 10 9 10 12
4 5 7 6 6 6 6 6 7 7 8 8 9 9 9 8 8 9 9 11 12 12 11 11 11 11 15 13 7 7 6 7 10 10 11 11 9 9 10 7 10 12 12
5 7 6 6 6 7 7 7 7 8 8 8 9 9 11 8 18 21 17 11 11 12 12 10 11 10 12 18 18 18 14 10 13 10 11 13 14 10 7 8 11 11 10
6 8 7 7 7 9 7 7 8 8 9 10 11 10 11 11 21 22 21 11 11 12 12 10 7 7 7 8 13 18 18 19 21 12 15 14 15 11 9 13 11 9 11
7 8 8 7 8 9 7 9 8 6 8 11 12 12 11 11 23 23 22 13 11 13 13 11 10 8 8 7 6 8 10 11 10 9 10 13 13 10 8 9 9 8 9
9 8 8 7 8 8 9 10 9 5 8 10 11 13 12 13 22 23 20 12 11 13 11 10 8 7 12 17 8 11 13 11 10 19 21 20 20 20 12 6 5 7 7
9 9 7 8 8 9 10 11 8 6 9 10 13 12 13 16 21 23 20 11 12 10 10 8 12 10 19 19 10 10 10 9 4 4 7 8 10 7 9 5 5 5 5
9 6 7 8 10 10 9 7 8 8 9 11 13 13 13 15 15 23 23 13 9 9 8 7 5 14 20 20 18 8 10 5 9 6 4 5 4 4 3 3 3 2 2
8 8 9 11 10 10 8 9 7 8 10 12 13 12 10 12 16 19 22 23 18 11 9 6 4 14 18 19 13 12 15 13 1 3 3 4 3 3 3 3 3 3 2
5 9 11 12 11 10 9 10 8 9 9 11 10 11 11 10 9 19 22 23 21 13 7 9 12 14 17 13 15 14 10 2 2 3 4 3 3 3 3 2 3 4 5
9 11 11 11 11 8 7 8 8 8 9 10 10 11 10 11 8 7 8 8 12 11 10 8 10 11 10 7 2 5 2 3 4 4 4 3 1 1 1 0 1 3 2
10 11 12 9 11 11 9 9 9 10 11 11 10 11 11 12 11 15 13 7 6 8 6 2 4 2 3 2 1 2 2 2 3 5 4 2 0 0 1 1 1 2 2
11 10 9 9 10 9 9 10 17 23 26 28 29 24 14 25 31 31 27 22 19 17 6 5 6 6 7 4 5 4 2 4 4 4 3 3 2 2 1 2 3 2 2
12 12 9 10 9 9 8 9 13 12 22 26 29 29 30 29 31 27 23 22 20 17 8 7 7 7 8 6 6 4 3 4 4 3 3 3 3 2 2 1 1 2 2
12 15 10 10 9 8 9 10 9 11 12 13 18 20 25 27 25 22 22 20 10 13 7 7 8 8 5 6 5 5 3 4 3 3 3 3 3 3 2 2 2 2 1
10 9 9 7 7 9 8 8 9 11 11 12 12 16 16 24 25 23 23 11 9 8 6 5 6 6 5 5 5 4 4 5 5 4 3 3 3 3 2 2 3 3 2
9 12 9 8 8 8 7 8 9 10 11 11 10 12 11 12 8 8 8 9 8 7 6 7 6 5 5 6 5 5 4 4 4 3 3 3 3 3 4 4 2 3 1
7 7 10 9 8 8 8 9 9 9 10 11 11 12 23 13 10 8 8 8 8 8 6 6 5 5 5 5 5 6 5 4 3 4 4 4 4 4 3 3 4 3 2
7 8 8 8 7 7 8 8 9 10 11 12 12 13 26 13 9 8 8 8 7 7 7 7 6 6 7 8 7 7 7 6 5 5 5 5 5 5 4 4 3 2 2
8 8 8 8 8 9 8 9 10 10 11 12 12 12 12 10 8 8 8 7 7 6 6 7 6 5 4 4 6 8 8 9 8 8 8 7 6 6 5 5 4 3 3
8 9 9 9 7 8 8 9 9 13 12 11 12 12 13 10 8 8 8 6 7 6 6 6 7 9 7 5 5 4 4 4 7 8 10 8 7 6 5 5 3 4 4
8 9 9 9 8 8 9 9 10 10 10 11 11 11 12 8 8 7 8 6 7 7 7 6 6 8 10 10 8 8 6 10 9 9 7 8 9 9 7 6 5 4 4
9 10 9 9 8 8 8 9 9 9 10 10 10 11 12 7 7 7 7 8 7 6 8 6 7 10 10 8 9 10 10 12 11 11 8 9 9 7 6 7 7 5 5
Wind_Direction
333 330 337 330 325 322 311 304 300 300 308 307 304 299 289 277 254 237 242 244 231 243 231 221 240 228 239 236 237 247 252 268 273 285 286 298 296 296 302 297 297 296 292
301 312 311 310 313 313 308 301 295 293 296 292 298 297 294 285 275 246 249 247 233 239 241 227 240 233 237 237 237 245 258 271 277 285 290 295 293 300 294 294 294 290 290
285 298 300 295 294 289 288 291 292 289 289 292 290 289 293 291 286 269 257 255 243 237 236 228 237 221 240 235 233 253 265 271 280 280 289 295 295 297 297 292 286 290 287
294 291 287 284 277 276 280 282 283 281 280 283 278 275 280 283 281 280 272 259 252 243 237 232 234 225 235 232 233 258 263 268 277 280 285 292 293 300 289 294 308 300 297
277 287 277 277 276 274 271 271 274 274 279 274 281 281 278 279 280 283 271 261 254 251 244 237 236 229 228 226 231 240 238 267 273 279 285 289 292 304 301 320 298 306 297
279 274 274 277 283 279 281 283 284 288 285 276 272 270 280 280 286 289 287 279 259 246 248 242 238 231 230 238 245 249 246 258 266 272 282 282 292 296 305 308 304 306 325
281 283 282 275 273 277 274 280 276 282 290 288 282 277 275 275 285 288 286 276 270 250 242 243 237 235 218 226 248 258 259 255 256 269 275 275 290 294 303 303 298 308 299
272 270 274 273 271 277 272 271 269 268 274 286 286 281 276 279 287 290 288 280 263 260 241 234 233 232 214 219 227 244 253 258 256 260 263 274 272 278 282 288 313 305 294
262 262 260 254 260 267 271 269 265 253 274 281 279 280 274 278 287 288 288 279 262 262 242 228 216 232 234 244 230 251 257 258 253 261 267 277 288 298 304 312 304 312 313
262 250 246 249 246 252 254 259 258 239 270 284 283 276 276 282 280 282 283 271 263 259 246 222 209 236 256 251 239 241 251 257 235 255 269 274 290 289 296 269 295 297 299
271 251 255 263 266 263 258 251 257 255 271 276 277 277 275 274 274 279 278 267 258 258 249 228 215 247 259 248 241 214 235 233 261 273 273 274 278 272 267 283 290 285 261
266 265 269 272 272 275 261 264 256 263 273 281 283 281 275 273 267 278 276 266 264 255 244 223 208 250 261 246 242 243 255 266 156 250 267 271 270 287 288 277 297 295 251
261 264 267 272 268 265 259 265 271 270 274 280 279 283 286 283 268 280 280 272 270 259 248 228 225 245 259 242 243 250 253 192 221 243 247 247 243 254 295 312 308 283 266
263 271 273 273 274 263 250 255 263 267 273 276 278 279 284 283 270 268 271 266 271 265 252 236 215 218 227 212 223 252 180 185 194 236 245 222 279 4 309 296 306 329 360
267 269 271 269 269 273 255 255 258 259 260 273 270 268 271 271 273 264 266 261 242 247 239 182 195 161 194 206 224 207 180 195 207 233 230 184 129 227 7 335 56 357 53
269 271 269 271 278 274 269 275 263 272 279 278 278 275 270 270 271 270 270 267 263 238 235 218 211 210 215 200 206 196 186 208 220 221 195 151 161 140 89 11 50 74 66
257 269 269 266 268 268 266 274 285 283 280 281 282 280 275 266 265 257 256 264 251 246 221 211 220 217 217 199 201 181 193 193 216 206 160 146 144 103 125 88 65 61 16
256 262 261 266 268 266 275 272 272 281 290 291 284 283 282 280 272 263 261 263 237 240 213 206 209 220 190 196 188 177 194 183 205 170 150 150 141 132 122 107 90 105 2
260 265 267 259 258 266 261 263 268 274 275 279 289 289 282 281 271 263 258 248 224 224 191 188 190 196 186 187 178 162 165 191 188 162 148 141 148 132 109 108 109 93 121
261 256 249 261 267 261 256 262 268 269 271 272 272 271 277 272 251 248 245 234 216 206 183 183 182 186 175 179 165 159 152 190 177 155 143 144 142 132 130 132 116 117 83
266 269 258 261 256 255 259 261 264 264 266 267 267 270 268 266 253 239 239 225 208 197 161 163 173 179 167 165 152 166 153 174 165 150 145 142 143 126 118 102 109 106 111
261 269 267 260 254 250 247 255 261 266 268 268 270 270 274 274 258 231 230 212 185 165 162 162 173 179 175 176 169 161 161 172 164 145 137 136 132 124 121 117 109 102 90
271 270 266 262 258 257 257 261 261 260 265 267 269 271 271 265 251 234 211 194 166 149 156 158 163 167 164 158 169 158 170 181 172 151 146 145 139 139 135 134 134 109 89
275 272 272 268 261 258 260 264 261 262 263 268 268 269 270 260 252 221 195 174 155 153 157 157 166 166 164 161 159 140 135 140 145 149 142 142 135 127 118 117 116 114 113
273 271 265 261 259 257 261 260 264 267 267 266 268 271 272 255 251 207 189 151 148 150 154 154 159 164 167 162 159 155 158 153 141 134 127 128 135 134 131 126 130 105 99
275 270 268 265 260 254 254 259 262 264 265 267 268 273 261 251 239 194 164 151 151 145 141 152 159 156 154 156 155 146 146 147 139 128 127 132 134 128 128 127 125 119 116